Weather History for Minot AFB, ND

Change the Weather History Date:

Monday, November 12, 2012

  Actual Average Record
Temperature  
Mean Temperature 10 °F -  
Max Temperature 18 °F 34 °F 73 °F (1999)
Min Temperature 3 °F 16 °F -4 °F (1998)
Degree Days  
Heating Degree Days 54    
Moisture  
Dew Point 3 °F    
Average Humidity 77    
Maximum Humidity 86    
Minimum Humidity 70    
Precipitation  
Precipitation 0.00 in - - ()
Sea Level Pressure  
Sea Level Pressure 30.14 in    
Wind  
Wind Speed 18 mph (West)    
Max Wind Speed 26 mph    
Max Gust Speed 33 mph    
Visibility 7 miles    
Events      
Averages and records for this station are not official NWS values.
T = Trace of Precipitation, MM = Missing Value Source: NWS Daily Summary

Daily Weather History Graph

Daily Weather History Graph

Search for Another Location

Airport:

Trip Planner

Search our weather history database for the weather conditions in past years. The results will help you decide how hot, cold, wet, or windy it might be!

Date:

Astronomy

Nov. 12, 2012 Rise Set
Actual Time 7:49 AM CST 5:09 PM CST
Civil Twilight 7:15 AM CST 5:43 PM CST
Nautical Twilight 6:37 AM CST 6:21 PM CST
Astronomical Twilight 6:00 AM CST 6:57 PM CST
Moon 6:13 AM CST (11/12) 4:18 PM CST (11/12)
Length of Visible Light 10h 28m
Length of Day
9h 20m
Waning Crescent, 2% of the Moon is Illuminated
Nov 12
Waning Crescent
Nov 13
New
Nov 20
First Quarter
Nov 28
Full
Dec 6
Last Quarter

Hourly Weather History & Observations

Time (CST) Temp. Windchill Dew Point Humidity Pressure Visibility Wind Dir Wind Speed Gust Speed Precip Events Conditions
12:55 AM 5.2 °F -16.9 °F -0.0 °F 79% 30.06 in 1.8 mi NW 24.2 mph - 0.00 in   Light Freezing Rain
1:06 AM 5.0 °F -16.2 °F -0.4 °F 78% 30.06 in 2.0 mi WNW 21.9 mph - N/A   Haze
1:18 AM 5.0 °F -16.7 °F -0.4 °F 78% 30.06 in 1.8 mi WNW 23.0 mph 32.2 mph N/A   Haze
1:30 AM 5.0 °F -16.7 °F -0.4 °F 78% 30.06 in 2.0 mi WNW 23.0 mph - N/A   Haze
1:33 AM 5.0 °F -17.1 °F -0.4 °F 78% 30.06 in 1.8 mi WNW 24.2 mph - N/A   Haze
1:55 AM 5.5 °F -16.4 °F 0.1 °F 78% 30.07 in 2.0 mi WNW 24.2 mph - 0.00 in   Haze
2:14 AM 5.0 °F -16.7 °F -0.4 °F 78% 30.07 in 2.0 mi WNW 23.0 mph - N/A   Haze
2:53 AM 5.0 °F -17.1 °F -0.4 °F 78% 30.09 in 2.0 mi WNW 24.2 mph - N/A   Haze
2:55 AM 4.8 °F -18.2 °F -0.6 °F 78% 30.09 in 2.0 mi WNW 26.5 mph 33.4 mph N/A   Haze
3:55 AM 4.6 °F -15.7 °F -1.3 °F 76% 30.11 in 2.5 mi WNW 19.6 mph - N/A   Haze
4:55 AM 4.5 °F -16.4 °F -1.5 °F 76% 30.12 in 2.5 mi WNW 20.7 mph - N/A   Haze
4:57 AM 5.0 °F -16.7 °F -2.2 °F 72% 30.12 in 3.0 mi WNW 23.0 mph - N/A   Haze
5:47 AM 5.0 °F -14.7 °F -2.2 °F 72% 30.14 in 3.0 mi WNW 18.4 mph - N/A   Haze
5:55 AM 4.5 °F -15.9 °F -1.5 °F 76% 30.14 in 3.0 mi WNW 19.6 mph - N/A   Haze
7:24 AM 3.2 °F -15.3 °F -2.2 °F 78% 30.03 in 10.0 mi WNW 15.0 mph - N/A   Clear
7:26 AM 3.2 °F -14.6 °F -2.2 °F 78% 30.17 in 10.0 mi WNW 13.8 mph - N/A   Clear
7:55 AM 3.4 °F -14.4 °F -2.9 °F 75% 30.18 in 10.0 mi West 13.8 mph - N/A   Clear
8:55 AM 5.2 °F -13.3 °F -1.3 °F 75% 30.20 in 10.0 mi WNW 16.1 mph - N/A   Clear
9:55 AM 5.9 °F -4.5 °F -0.6 °F 75% 30.20 in 10.0 mi West 5.8 mph - N/A   Clear
10:55 AM 10.0 °F -1.9 °F 3.2 °F 74% 30.21 in 10.0 mi West 8.1 mph - N/A   Clear
11:55 AM 13.1 °F 2.8 °F 5.7 °F 72% 30.20 in 10.0 mi WSW 6.9 mph - N/A   Clear
12:55 PM 15.8 °F 6.1 °F 7.5 °F 70% 30.18 in 10.0 mi WSW 6.9 mph - N/A   Clear
1:55 PM 17.6 °F 6.4 °F 9.9 °F 72% 30.17 in 10.0 mi WSW 9.2 mph - N/A   Clear
2:55 PM 18.5 °F 8.4 °F 11.8 °F 75% 30.16 in 10.0 mi WSW 8.1 mph - N/A   Clear
3:55 PM 18.3 °F 7.3 °F 11.3 °F 74% 30.15 in 10.0 mi WSW 9.2 mph - N/A   Clear
4:55 PM 16.5 °F 4.3 °F 10.4 °F 77% 30.17 in 10.0 mi WSW 10.4 mph - N/A   Clear
5:55 PM 12.9 °F 3.8 °F 7.7 °F 80% 30.18 in 10.0 mi West 5.8 mph - N/A   Clear
6:55 PM 11.8 °F 1.3 °F 6.8 °F 80% 30.18 in 10.0 mi WSW 6.9 mph - N/A   Clear
7:55 PM 7.0 °F 0.1 °F 3.4 °F 85% 30.18 in 10.0 mi West 3.5 mph - N/A   Clear
8:55 PM 8.2 °F -6.8 °F 4.8 °F 86% 30.18 in 10.0 mi WSW 11.5 mph - N/A   Clear
9:55 PM 14.0 °F 1.2 °F 9.0 °F 80% 30.18 in 10.0 mi West 10.4 mph - N/A   Clear
10:55 PM 13.3 °F - 8.6 °F 82% 30.19 in 10.0 mi Calm Calm - N/A   Clear
11:55 PM 14.4 °F 8.6 °F 10.2 °F 84% 30.19 in 10.0 mi SW 3.5 mph - N/A   Clear